Weather History for KLFT - April, 2012

Change the Weather History Date:

Friday, April 6, 2012

  Actual Average Record
Temperature  
Mean Temperature 69 °F 67 °F  
Max Temperature 81 °F 77 °F 87 °F (1911)
Min Temperature 57 °F 56 °F 37 °F (1971)
Degree Days  
Heating Degree Days 0 2  
Month to date heating degree days 0 15  
Since 1 July heating degree days 1029 1395  
Cooling Degree Days 4 4  
Month to date cooling degree days 50 22  
Year to date cooling degree days 289 117  
Growing Degree Days 18 (Base 50)    
Moisture  
Dew Point 56 °F    
Average Humidity 63    
Maximum Humidity 87    
Minimum Humidity 39    
Precipitation  
Precipitation 0.00 in 0.11 in 3.20 in (1928)
Month to date precipitation 2.15 0.69  
Year to date precipitation 19.69 14.60  
Snow  
Snow 0.00 in 0.00 in 0.00 in ()
Month to date snowfall 0.0 0.0  
Since 1 July snowfall 0.0 T  
Snow Depth 0.00 in    
Sea Level Pressure  
Sea Level Pressure 29.97 in    
Wind  
Wind Speed 6 mph (NE)    
Max Wind Speed 15 mph    
Max Gust Speed 20 mph    
Visibility 10 miles    
Events      
T = Trace of Precipitation, MM = Missing Value Source: NWS Daily Summary

Daily Weather History Graph

Daily Weather History Graph

Search for Another Location

Airport or City:

Trip Planner

Search our weather history database for the weather conditions in past years. The results will help you decide how hot, cold, wet, or windy it might be!

Date:

Astronomy

Apr. 06, 2012 Rise Set
Actual Time 6:50 AM CDT 7:30 PM CDT
Civil Twilight 6:26 AM CDT 7:54 PM CDT
Nautical Twilight 5:57 AM CDT 8:23 PM CDT
Astronomical Twilight 5:28 AM CDT 8:52 PM CDT
Moon 7:44 PM CDT (4/6) 6:25 AM CDT (4/6)
Length of Visible Light 13h 28m
Length of Day
12h 39m
Full, 100% of the Moon is Illuminated
Apr 6
Full
Apr 6
Full
Apr 13
Last Quarter
Apr 21
New
Apr 29
First Quarter

Hourly Weather History & Observations

Time (CDT) Temp. Heat Index Dew Point Humidity Pressure Visibility Wind Dir Wind Speed Gust Speed Precip Events Conditions
12:53 AM 66.0 °F - 57.0 °F 73% 29.89 in 10.0 mi NE 3.5 mph - N/A   Clear
1:53 AM 63.0 °F - 57.0 °F 81% 29.90 in 10.0 mi NNE 4.6 mph - N/A   Clear
2:53 AM 62.6 °F - 57.2 °F 82% 29.90 in 10.0 mi Calm Calm - N/A   Clear
3:53 AM 59.0 °F - 55.9 °F 90% 29.89 in 10.0 mi NNE 3.5 mph - N/A   Clear
4:53 AM 60.1 °F - 55.9 °F 86% 29.90 in 10.0 mi Calm Calm - N/A   Clear
5:53 AM 57.9 °F - 54.0 °F 87% 29.92 in 10.0 mi Calm Calm - N/A   Clear
6:53 AM 59.0 °F - 55.0 °F 87% 29.93 in 10.0 mi NE 3.5 mph - N/A   Clear
7:53 AM 62.1 °F - 55.9 °F 80% 29.96 in 10.0 mi Calm Calm - N/A   Clear
8:53 AM 66.2 °F - 57.2 °F 73% 29.97 in 10.0 mi NE 5.8 mph - N/A   Clear
9:53 AM 71.6 °F - 53.6 °F 53% 29.99 in 10.0 mi NE 6.9 mph - N/A   Clear
10:53 AM 73.9 °F - 54.0 °F 50% 30.00 in 10.0 mi NE 5.8 mph - N/A   Clear
11:53 AM 75.9 °F - 55.0 °F 48% 30.00 in 10.0 mi NE 8.1 mph - N/A   Clear
12:53 PM 78.1 °F - 55.0 °F 45% 29.99 in 10.0 mi NE 10.4 mph - N/A   Clear
1:53 PM 78.1 °F - 53.1 °F 42% 29.98 in 10.0 mi NNE 11.5 mph - N/A   Clear
2:53 PM 80.1 °F 80.2 °F 55.9 °F 43% 29.97 in 10.0 mi NNE 9.2 mph - N/A   Clear
3:53 PM 80.1 °F 80.2 °F 55.9 °F 43% 29.96 in 10.0 mi NNE 9.2 mph - N/A   Clear
4:53 PM 80.1 °F 80.0 °F 54.0 °F 40% 29.96 in 10.0 mi North 11.5 mph - N/A   Clear
5:53 PM 79.0 °F - 55.9 °F 45% 29.97 in 10.0 mi NE 9.2 mph - N/A   Clear
6:53 PM 75.0 °F - 57.0 °F 53% 29.98 in 10.0 mi NNE 8.1 mph - N/A   Clear
7:53 PM 70.0 °F - 57.9 °F 65% 30.00 in 10.0 mi NE 4.6 mph - N/A   Clear
8:53 PM 69.1 °F - 57.9 °F 68% 30.02 in 10.0 mi NE 3.5 mph - N/A   Clear
9:53 PM 66.0 °F - 57.0 °F 73% 30.05 in 10.0 mi NE 4.6 mph - N/A   Clear
10:53 PM 64.9 °F - 55.9 °F 73% 30.05 in 10.0 mi NE 4.6 mph - N/A   Clear
11:53 PM 64.0 °F - 55.9 °F 75% 30.06 in 10.0 mi NE 5.8 mph - N/A   Clear